N7QNM-13 Weather Reports


time (UTC)temp
F
wind
direction
speed
knots
gust
knots
rain 1hr
in
rain 24hr
in
rain mn
in
humidity
%
barometer
mb
20260903160041 59 214 4.3 7.0 0.00 0.29 0.00 65 1011.0
20260903155100 58 172 7.0 10.4 0.00 0.29 0.00 67 1011.0
20260903154122 57 158 4.3 7.8 0.00 0.29 0.00 67 1010.9
20260903153040 57 185 7.0 11.3 0.00 0.29 0.00 67 1011.0
20260903152040 57 171 7.0 9.6 0.00 0.29 0.00 67 1011.1
20260903151040 57 183 5.2 7.0 0.00 0.29 0.00 67 1011.0
20260903145042 57 179 5.2 7.8 0.00 0.29 0.00 75 1011.1
20260903144040 57 99 0.9 2.6 0.00 0.29 0.00 83 1011.1
20260903143041 55 0.0 0.0 0.00 0.29 0.00 85 1011.0
20260903142041 53 0.0 2.6 0.00 0.29 0.00 86 1010.9
20260903141042 52 108 0.9 1.7 0.00 0.29 0.00 87 1010.8
20260903140041 51 0.0 0.0 0.00 0.29 0.00 87 1010.7
20260903135122 50 113 0.9 2.6 0.00 0.29 0.00 87 1010.7
20260903134041 50 135 1.7 2.6 0.00 0.29 0.00 86 1010.6
20260903133041 50 0.0 0.9 0.00 0.29 0.00 86 1010.5
20260903132043 50 105 0.9 2.6 0.00 0.29 0.00 85 1010.4
20260903131042 49 50 1.7 2.6 0.00 0.29 0.00 85 1010.3
20260903130043 49 152 0.9 1.7 0.00 0.29 0.00 84 1010.3
20260903125043 49 343 0.9 2.6 0.00 0.29 0.00 83 1010.3
20260903124043 49 0.0 0.0 0.00 0.29 0.00 83 1010.4
20260903123047 49 103 0.0 1.7 0.00 0.29 0.00 82 1010.3
20260903122042 49 0.0 0.0 0.00 0.29 0.00 81 1010.3
20260903121042 48 203 0.9 2.6 0.00 0.29 0.00 80 1010.3
20260903120044 49 351 0.0 0.9 0.00 0.29 0.00 79 1010.2
20260903115044 49 164 0.9 1.7 0.00 0.29 0.00 78 1010.1
20260903114042 50 184 1.7 2.6 0.00 0.29 0.00 77 1010.1
20260903113042 50 190 1.7 2.6 0.00 0.29 0.00 76 1010.1
20260903112044 51 183 0.9 2.6 0.00 0.29 0.00 74 1010.0
20260903111044 52 0.0 0.0 0.00 0.29 0.00 72 1009.9
20260903110043 53 208 0.9 2.6 0.00 0.29 0.00 70 1009.8
20260903105043 54 195 2.6 4.3 0.00 0.29 0.00 68 1009.7
20260903104043 55 238 1.7 2.6 0.00 0.29 0.00 65 1009.6
20260903103043 56 324 3.5 7.8 0.00 0.29 0.00 66 1009.4
20260903102044 56 178 8.7 9.6 0.00 0.29 0.00 67 1009.1
20260903101044 56 180 6.1 10.4 0.00 0.29 0.00 65 1009.0
20260903100044 56 164 8.7 13.0 0.00 0.29 0.00 68 1008.8
20260903095043 56 173 5.2 8.7 0.00 0.29 0.00 70 1009.0
20260903094104 56 168 6.1 10.4 0.00 0.29 0.00 71 1009.0
20260903093043 57 180 6.1 8.7 0.00 0.29 0.00 70 1008.9
20260903092105 58 176 6.1 7.8 0.00 0.29 0.00 67 1009.1
20260903091046 59 182 6.1 9.6 0.00 0.29 0.00 64 1009.1
20260903090044 59 203 5.2 7.0 0.00 0.29 0.00 63 1009.0
20260903085125 59 187 6.1 9.6 0.00 0.29 0.00 63 1009.0
20260903084044 60 204 4.3 7.0 0.00 0.29 0.00 64 1009.0
20260903083046 60 214 4.3 5.2 0.00 0.29 0.00 64 1009.0
20260903082044 60 160 4.3 7.0 0.00 0.29 0.00 63 1008.9
20260903081044 60 203 3.5 6.1 0.00 0.29 0.00 64 1008.6
20260903080045 60 197 4.3 7.0 0.00 0.29 0.00 68 1008.5
20260903075107 60 181 4.3 7.0 0.00 0.29 0.00 71 1008.4
20260903074044 60 172 4.3 7.0 0.00 0.29 0.00 71 1008.4
20260903073045 59 175 4.3 7.0 0.00 0.29 0.00 74 1008.3
20260903072045 59 176 5.2 8.7 0.00 0.29 0.00 76 1008.3
20260903071045 59 155 8.7 11.3 0.01 0.29 0.00 78 1008.5
20260903070107 59 153 6.1 7.8 0.01 0.29 0.00 80 1008.5
20260903065046 59 165 4.3 7.8 0.01 0.29 0.29 79 1008.5
20260903064045 59 181 2.6 4.3 0.02 0.29 0.29 80 1008.4
20260903063045 59 148 1.7 4.3 0.02 0.29 0.29 82 1008.5
20260903062108 59 154 2.6 5.2 0.02 0.29 0.29 83 1008.4
20260903061107 60 168 4.3 7.0 0.01 0.28 0.28 83 1008.5
20260903060046 60 164 5.2 8.7 0.01 0.28 0.28 83 1008.4
20260903055047 60 175 7.0 9.6 0.01 0.27 0.27 83 1008.3
20260903054046 61 165 7.8 11.3 0.01 0.27 0.27 82 1008.3
20260903053047 61 164 7.8 9.6 0.02 0.27 0.27 81 1008.3
20260903052107 60 191 9.6 13.9 0.02 0.27 0.27 82 1008.3
20260903051048 60 174 8.7 11.3 0.03 0.27 0.27 82 1008.2
20260903050048 60 169 7.8 11.3 0.04 0.27 0.27 83 1008.4
20260903045106 60 160 6.1 8.7 0.04 0.26 0.26 83 1008.5
20260903044048 60 171 7.8 11.3 0.04 0.26 0.26 83 1008.3
20260903043046 60 152 7.8 10.4 0.03 0.25 0.25 83 1008.2
20260903042046 61 185 7.8 10.4 0.03 0.24 0.24 82 1008.2
20260903041048 61 171 11.3 13.0 0.02 0.24 0.24 81 1008.1
20260903040048 61 151 11.3 13.9 0.02 0.23 0.23 81 1008.1
20260903035048 61 137 11.3 13.9 0.02 0.22 0.22 80 1007.9
20260903034049 61 143 11.3 14.8 0.02 0.22 0.22 79 1007.8
20260903033049 61 158 10.4 14.8 0.03 0.22 0.22 79 1007.8
20260903032049 61 154 9.6 13.0 0.03 0.22 0.22 79 1007.8
20260903031047 61 169 9.6 14.8 0.03 0.21 0.21 79 1007.8
20260903030047 61 147 10.4 13.0 0.04 0.21 0.21 79 1007.7
20260903025047 61 145 10.4 12.2 0.03 0.20 0.20 78 1007.7
20260903024047 61 152 9.6 14.8 0.03 0.20 0.20 77 1007.7
20260903023048 61 136 7.0 9.6 0.03 0.19 0.19 77 1007.8
20260903022048 61 164 7.0 9.6 0.03 0.19 0.19 77 1007.9
20260903021049 61 160 7.8 11.3 0.03 0.18 0.18 77 1007.9
20260903020049 60 164 7.0 10.4 0.03 0.18 0.18 78 1008.1
20260903015048 60 162 7.0 9.6 0.05 0.17 0.17 78 1007.9
20260903014049 61 159 7.0 8.7 0.05 0.17 0.17 77 1008.0
20260903013050 61 168 7.8 11.3 0.06 0.16 0.16 76 1008.1
20260903012050 61 167 7.0 9.6 0.07 0.16 0.16 76 1008.1
20260903011110 61 185 6.1 8.7 0.08 0.15 0.15 76 1008.1
20260903010048 61 144 8.7 11.3 0.08 0.14 0.14 74 1008.1
20260903005049 61 158 7.8 9.6 0.08 0.13 0.13 74 1008.0
20260903004131 61 180 8.7 10.4 0.08 0.12 0.12 73 1007.9
20260903003051 62 170 9.6 13.9 0.07 0.10 0.10 72 1007.8
20260903002050 62 178 8.7 13.0 0.05 0.08 0.08 72 1007.9
20260903001150 62 178 6.1 8.7 0.05 0.07 0.07 71 1007.9
20260903000051 63 175 7.8 10.4 0.05 0.06 0.06 68 1007.8
20260902235049 63 204 7.0 11.3 0.03 0.05 0.05 66 1007.6
20260902234051 64 92 9.6 12.2 0.03 0.04 0.04 64 1007.4
20260902233550 64 172 9.6 13.0 0.02 0.04 0.04 63 1007.5
20260902232550 65 205 7.0 14.8 0.02 0.03 0.03 63 1007.5
20260902231550 67 184 10.4 13.0 0.01 0.02 0.02 57 1007.5
20260902230611 67 207 8.7 13.0 0.00 0.01 0.01 50 1007.4
20260902225550 68 180 7.0 10.4 0.00 0.01 0.01 50 1007.6
20260902225050 68 213 7.8 11.3 0.00 0.01 0.01 49 1007.6
20260902224050 69 238 7.8 13.0 0.00 0.01 0.01 47 1007.7
20260902223051 69 187 6.1 11.3 0.01 0.01 0.01 46 1007.7
20260902222052 69 215 7.0 10.4 0.01 0.01 0.01 46 1007.7
20260902221052 68 214 7.0 11.3 0.01 0.01 0.01 49 1007.6
20260902220112 67 217 10.4 17.4 0.01 0.01 0.01 51 1007.6
20260902215052 68 213 9.6 16.5 0.01 0.01 0.01 56 1007.6
20260902214051 73 196 7.8 11.3 0.01 0.01 0.01 52 1007.6
20260902213051 74 177 7.8 10.4 0.00 0.00 0.00 42 1007.0
20260902212051 75 177 7.8 11.3 0.00 0.00 0.00 39 1006.7
20260902211052 76 187 7.0 12.2 0.00 0.00 0.00 39 1006.5
20260902210113 77 169 7.8 11.3 0.00 0.00 0.00 37 1006.4
20260902205051 79 166 7.8 12.2 0.00 0.00 0.00 35 1006.3
20260902204052 79 215 5.2 10.4 0.00 0.00 0.00 35 1006.3
20260902203052 79 179 5.2 9.6 0.00 0.00 0.00 36 1006.3
20260902202113 77 124 6.1 11.3 0.00 0.00 0.00 37 1006.4
20260902201052 77 219 6.1 11.3 0.00 0.00 0.00 37 1006.5
20260902200052 77 263 7.0 10.4 0.00 0.00 0.00 37 1006.6
20260902195112 77 238 7.8 13.9 0.00 0.00 0.00 37 1006.7
20260902194052 77 249 7.8 13.9 0.00 0.00 0.00 37 1006.8
20260902193054 76 214 6.1 8.7 0.00 0.00 0.00 39 1007.1
20260902192053 75 188 6.1 11.3 0.00 0.00 0.00 39 1007.2
20260902191053 75 158 8.7 11.3 0.00 0.00 0.00 39 1007.4
20260902190053 75 235 4.3 11.3 0.00 0.00 0.00 39 1007.5
20260902185115 75 157 7.8 13.9 0.00 0.00 0.00 40 1007.5
20260902184114 74 145 8.7 12.2 0.00 0.00 0.00 42 1007.6
20260902183053 74 170 8.7 10.4 0.00 0.00 0.00 42 1007.7
20260902182054 74 175 9.6 14.8 0.00 0.00 0.00 42 1007.8
20260902181054 73 164 8.7 12.2 0.00 0.00 0.00 42 1007.9
20260902180054 73 166 8.7 14.8 0.00 0.00 0.00 44 1007.9
20260902175054 73 160 9.6 12.2 0.00 0.00 0.00 44 1008.0
20260902174054 72 152 10.4 13.9 0.00 0.00 0.00 46 1008.0
20260902173054 73 164 8.7 11.3 0.00 0.00 0.00 44 1007.9
20260902172054 73 164 6.1 9.6 0.00 0.00 0.00 44 1008.0
20260902171054 74 171 8.7 13.0 0.00 0.00 0.00 45 1008.1
20260902170116 73 156 4.3 7.8 0.00 0.00 0.00 44 1008.2
20260902165116 72 29 1.7 2.6 0.00 0.00 0.00 44 1008.2
20260902164056 72 23 3.5 5.2 0.00 0.00 0.00 45 1008.2
20260902163055 71 5 2.6 4.3 0.00 0.00 0.00 46 1008.2
20260902162055 70 319 3.5 5.2 0.00 0.00 0.00 47 1008.1
20260902161055 68 9 1.7 3.5 0.00 0.00 0.00 52 1008.3